User: anonymous   Login
Location: Cluny
(50.9333°N, 112.8167°W)
Time: 17:17:40
(UTC-07:00)
Language:

Cosmos 1743 Rocket - Orbit

View from above orbital plane
View from above orbital plane
View from above satellite
View from above satellite

Ground track
Ground track

The orbit data is extracted from the following two-line orbital elements,

1 16720U 86034B   17055.53426014  .00000116  00000-0  11149-4 0  9998
2 16720  82.5570 346.5258 0021697 111.5296   4.1531 14.83275938662567
Epoch (UTC): 24 February 2017 12:49:20
Eccentricity: 0.0021697
inclination: 82.5570°
perigee height: 604 km
apogee height: 634 km
right ascension of ascending node: 346.5258°
argument of perigee: 111.5296°
revolutions per day: 14.83275938
mean anomaly at epoch: 4.1531°
orbit number at epoch: 66256

The dashed part of the orbit path shows where the satellite is in the earth's shadow,  

DLR